Estherville, IA

12:18 PM CDT on September 26, 2017 (GMT -0500)
Estherville Municipal

Weather History for KEST - August, 2014

Change the Weather History Date:

Tuesday, August 12, 2014

  Actual Average Record
Temperature  
Mean Temperature 63 °F 70 °F  
Max Temperature 75 °F 80 °F 96 °F (1965)
Min Temperature 51 °F 59 °F 45 °F (1986)
Degree Days  
Heating Degree Days 2 1  
Month to date heating degree days 2 1  
Since 1 June heating degree days 60 51  
Since 1 July heating degree days 29 10  
Cooling Degree Days 0 5  
Month to date cooling degree days 36 69  
Year to date cooling degree days 312 461  
Since 1 June cooling degree days 263 425  
Growing Degree Days 12 (Base 50)    
Moisture  
Dew Point 53 °F    
Average Humidity 71    
Maximum Humidity 96    
Minimum Humidity 46    
Precipitation  
Precipitation 0.00 in 0.13 in 1.04 in (1985)
Month to date precipitation 0.13 1.72  
Sea Level Pressure  
Sea Level Pressure 30.09 in    
Wind  
Wind Speed 9 mph (NW)    
Max Wind Speed 18 mph    
Max Gust Speed 24 mph    
Visibility 10 miles    
Events      
T = Trace of Precipitation, MM = Missing Value Source: NWS Daily Summary

Daily Weather History Graph

Daily Weather History Graph

Search for Another Location

Airport or City:

Trip Planner

Search our weather history database for the weather conditions in past years. The results will help you decide how hot, cold, wet, or windy it might be!

Date:

Astronomy

Aug. 12, 2014 Rise Set
Actual Time 6:20 AM CDT 8:26 PM CDT
Civil Twilight 5:49 AM CDT 8:57 PM CDT
Nautical Twilight 5:11 AM CDT 9:35 PM CDT
Astronomical Twilight 4:28 AM CDT 10:17 PM CDT
Moon 9:27 PM CDT (8/12) 8:44 AM CDT (8/12)
Length of Visible Light 15h 08m
Length of Day
14h 05m
Waning Gibbous, 94% of the Moon is Illuminated
Aug 12
Waning Gibbous
Aug 17
Last Quarter
Aug 25
New
Sep 2
First Quarter
Sep 8
Full

Hourly Weather History & Observations

Time (CDT) Temp. Dew Point Humidity Pressure Visibility Wind Dir Wind Speed Gust Speed Precip Events Conditions
12:52 AM 55.0 °F 51.1 °F 86% 30.09 in 10.0 mi NW 6.9 mph - N/A   Clear
1:52 AM 54.0 °F 51.1 °F 90% 30.08 in 10.0 mi NW 8.1 mph - N/A   Clear
2:52 AM 53.1 °F 50.0 °F 89% 30.08 in 10.0 mi WNW 9.2 mph - N/A   Clear
4:52 AM 53.1 °F 50.0 °F 89% 30.09 in 10.0 mi WNW 6.9 mph - N/A   Partly Cloudy
5:52 AM 52.0 °F 50.0 °F 93% 30.10 in 10.0 mi NW 6.9 mph - N/A   Partly Cloudy
6:52 AM 52.0 °F 50.0 °F 93% 30.12 in 10.0 mi NW 6.9 mph - N/A   Clear
7:52 AM 55.9 °F 52.0 °F 87% 30.12 in 10.0 mi NW 9.2 mph - N/A   Clear
8:52 AM 61.0 °F 54.0 °F 78% 30.13 in 10.0 mi NW 9.2 mph - N/A   Clear
9:52 AM 64.9 °F 55.0 °F 70% 30.13 in 10.0 mi NNW 9.2 mph - N/A   Clear
10:52 AM 69.1 °F 54.0 °F 58% 30.13 in 10.0 mi NNW 11.5 mph - N/A   Clear
12:52 PM 72.0 °F 51.1 °F 48% 30.12 in 10.0 mi NNW 15.0 mph - N/A   Clear
1:52 PM 73.0 °F 52.0 °F 48% 30.11 in 10.0 mi North 13.8 mph - N/A   Clear
3:52 PM 73.9 °F 52.0 °F 46% 30.08 in 10.0 mi North 13.8 mph - N/A   Clear
4:52 PM 73.9 °F 51.1 °F 45% 30.08 in 10.0 mi NNW 12.7 mph - N/A   Clear
5:52 PM 73.9 °F 51.1 °F 45% 30.07 in 10.0 mi North 9.2 mph - N/A   Clear
6:52 PM 73.0 °F 53.1 °F 49% 30.06 in 10.0 mi North 8.1 mph - N/A   Clear
7:52 PM 69.1 °F 57.9 °F 68% 30.06 in 10.0 mi NW 5.8 mph - N/A   Clear
8:52 PM 62.1 °F 57.9 °F 86% 30.07 in 10.0 mi WNW 5.8 mph - N/A   Clear
9:52 PM 59.0 °F 55.9 °F 90% 30.08 in 10.0 mi WNW 6.9 mph - N/A   Clear
10:52 PM 57.9 °F 54.0 °F 87% 30.08 in 10.0 mi WNW 6.9 mph - N/A   Clear
11:52 PM 57.0 °F 54.0 °F 89% 30.09 in 10.0 mi West 8.1 mph - N/A   Clear